Chatham, MA

10:58 AM EST on January 16, 2018 (GMT -0500)
Chatham Municipal

Weather History for KCQX - August, 2013

Change the Weather History Date:

Saturday, August 17, 2013

  Actual Average Record
Temperature  
Mean Temperature 68 °F -  
Max Temperature 77 °F 74 °F 91 °F (2002)
Min Temperature 60 °F 61 °F 56 °F (1979)
Cooling Degree Days 4    
Growing Degree Days 18 (Base 50)    
Moisture  
Dew Point 60 °F    
Average Humidity 76    
Maximum Humidity 94    
Minimum Humidity 55    
Precipitation  
Precipitation 0.00 in - - ()
Sea Level Pressure  
Sea Level Pressure 30.26 in    
Wind  
Wind Speed 1 mph (NE)    
Max Wind Speed 9 mph    
Max Gust Speed -    
Visibility 10 miles    
Events      
Averages and records for this station are not official NWS values.
T = Trace of Precipitation, MM = Missing Value Source: NWS Daily Summary

Daily Weather History Graph

Daily Weather History Graph

Search for Another Location

Airport or City:

Trip Planner

Search our weather history database for the weather conditions in past years. The results will help you decide how hot, cold, wet, or windy it might be!

Date:

Astronomy

Aug. 17, 2013 Rise Set
Actual Time 5:50 AM EDT 7:36 PM EDT
Civil Twilight 5:20 AM EDT 8:06 PM EDT
Nautical Twilight 4:44 AM EDT 8:42 PM EDT
Astronomical Twilight 4:05 AM EDT 9:20 PM EDT
Moon 4:50 PM EDT (8/17) 1:48 AM EDT (8/17)
Length of Visible Light 14h 45m
Length of Day
13h 45m
Waxing Gibbous, 84% of the Moon is Illuminated
Aug 17
Waxing Gibbous
Aug 20
Full
Aug 28
Last Quarter
Sep 5
New
Sep 12
First Quarter

Hourly Weather History & Observations

Time (EDT) Temp. Dew Point Humidity Pressure Visibility Wind Dir Wind Speed Gust Speed Precip Events Conditions
12:52 AM 64.9 °F 59.0 °F 81% 30.22 in 10.0 mi Calm Calm - N/A   Clear
1:52 AM 64.9 °F 60.1 °F 84% 30.22 in 10.0 mi Calm Calm - N/A   Clear
2:52 AM 64.9 °F 60.1 °F 84% 30.22 in 10.0 mi Calm Calm - N/A   Clear
3:52 AM 61.0 °F 59.0 °F 93% 30.22 in 10.0 mi Calm Calm - N/A   Clear
4:52 AM 61.0 °F 57.9 °F 90% 30.22 in 10.0 mi Calm Calm - N/A   Clear
5:52 AM 60.1 °F 57.0 °F 90% 30.23 in 10.0 mi Calm Calm - N/A   Clear
6:52 AM 62.1 °F 59.0 °F 90% 30.23 in 10.0 mi Calm Calm - N/A   Clear
7:52 AM 69.1 °F 60.1 °F 73% 30.25 in 10.0 mi NNW 3.5 mph - N/A   Clear
8:52 AM 72.0 °F 60.1 °F 66% 30.25 in 10.0 mi Calm Calm - N/A   Clear
9:52 AM 75.0 °F 57.9 °F 55% 30.26 in 10.0 mi Calm Calm - N/A   Clear
10:52 AM 75.9 °F 59.0 °F 56% 30.27 in 10.0 mi ENE 4.6 mph - N/A   Clear
11:52 AM 75.9 °F 60.1 °F 58% 30.28 in 10.0 mi NE 5.8 mph - N/A   Clear
12:52 PM 77.0 °F 60.1 °F 56% 30.27 in 10.0 mi Variable 3.5 mph - N/A   Clear
1:52 PM 75.0 °F 59.0 °F 57% 30.26 in 10.0 mi NE 3.5 mph - N/A   Clear
2:52 PM 75.0 °F 59.0 °F 57% 30.25 in 10.0 mi ENE 6.9 mph - N/A   Clear
3:52 PM 75.0 °F 60.1 °F 60% 30.25 in 10.0 mi ENE 9.2 mph - N/A   Clear
4:52 PM 73.0 °F 61.0 °F 66% 30.26 in 10.0 mi North - - N/A   Clear
5:52 PM 72.0 °F 61.0 °F 68% 30.26 in 10.0 mi ENE 5.8 mph - N/A   Clear
6:52 PM 70.0 °F 61.0 °F 73% 30.27 in 10.0 mi ENE 3.5 mph - N/A   Clear
7:52 PM 66.9 °F 63.0 °F 87% 30.27 in 10.0 mi Calm Calm - N/A   Clear
8:52 PM 66.0 °F 62.1 °F 87% 30.28 in 10.0 mi Calm Calm - N/A   Clear
9:52 PM 64.0 °F 61.0 °F 90% 30.29 in 10.0 mi Calm Calm - N/A   Clear
10:52 PM 63.0 °F 60.1 °F 90% 30.30 in 9.0 mi Calm Calm - N/A   Clear
11:12 PM 62.6 °F 60.8 °F 94% 30.29 in 7.0 mi Calm Calm - N/A   Partly Cloudy
11:52 PM 62.1 °F 59.0 °F 90% 30.30 in 7.0 mi Calm Calm - N/A   Clear